timestamp,surface_pressure_avg,surface_temp_avg,battery_voltage,lat,long
2023-07-22 00:09:00+00:00,285.9697,19.9,12.81,47.84626,-54.09684
2023-07-22 00:19:00+00:00,292.3564,19.8,12.73,47.84626,-54.09684
2023-07-22 00:29:00+00:00,300.1664,19.8,12.73,47.84626,-54.09684
2023-07-22 00:39:00+00:00,305.6896,19.8,12.73,47.84626,-54.09684
2023-07-22 00:49:00+00:00,312.6313,19.86,12.73,47.84626,-54.09684
2023-07-22 00:59:00+00:00,321.1164,19.88,12.73,47.84626,-54.09684
2023-07-22 01:09:00+00:00,324.9979,19.8,12.73,47.84626,-54.09684
2023-07-22 01:19:00+00:00,327.2814,19.77,12.73,47.84626,-54.09684
2023-07-22 01:29:00+00:00,333.0013,19.8,12.73,47.84626,-54.09684
2023-07-22 01:39:00+00:00,336.7396,19.8,12.73,47.84626,-54.09684
2023-07-22 01:49:00+00:00,334.0213,19.9,12.73,47.84626,-54.09684
2023-07-22 01:59:00+00:00,332.5714,19.99,12.73,47.84626,-54.09684
2023-07-22 02:09:00+00:00,336.6013,20.0,12.73,47.84626,-54.09684
2023-07-22 02:19:00+00:00,340.23800000000006,20.0,12.73,47.84626,-54.09684
2023-07-22 02:29:00+00:00,337.9047,20.0,12.73,47.84626,-54.09684
2023-07-22 02:39:00+00:00,337.99300000000005,20.0,12.73,47.84626,-54.09684
2023-07-22 02:49:00+00:00,340.6296,20.0,12.73,47.84626,-54.09684
2023-07-22 02:59:00+00:00,339.6647,20.0,12.73,47.84626,-54.09684
2023-07-22 03:09:00+00:00,335.2097,20.0,12.73,47.84626,-54.09684
2023-07-22 03:19:00+00:00,333.7729,20.0,12.73,47.84626,-54.09684
2023-07-22 03:29:00+00:00,333.1463,20.0,12.73,47.84626,-54.09684
2023-07-22 03:39:00+00:00,327.713,20.0,12.73,47.84626,-54.09684
2023-07-22 03:49:00+00:00,323.593,20.0,12.73,47.84626,-54.09684
2023-07-22 03:59:00+00:00,321.968,20.0,12.73,47.84626,-54.09684
2023-07-22 04:09:00+00:00,321.9047,19.98,12.73,47.84626,-54.09684
2023-07-22 04:19:00+00:00,314.96299999999997,19.99,12.65,47.84626,-54.09684
2023-07-22 04:29:00+00:00,308.1163,20.0,12.65,47.84626,-54.09684
2023-07-22 04:39:00+00:00,305.0296,20.0,12.65,47.84626,-54.09684
2023-07-22 04:49:00+00:00,300.7413,20.0,12.65,47.84626,-54.09684
2023-07-22 04:59:00+00:00,292.048,20.0,12.65,47.84626,-54.09684
2023-07-22 05:09:00+00:00,283.6163,20.0,12.65,47.84626,-54.09684
2023-07-22 05:19:00+00:00,277.3564,20.0,12.65,47.84626,-54.09684
2023-07-22 05:29:00+00:00,270.8131,20.0,12.65,47.84626,-54.09684
2023-07-22 05:39:00+00:00,263.368,20.0,12.65,47.84626,-54.09684
2023-07-22 05:49:00+00:00,257.2347,20.0,12.65,47.84626,-54.09684
2023-07-22 05:59:00+00:00,252.7247,20.0,12.65,47.84626,-54.09684
2023-07-22 06:09:00+00:00,247.4381,20.09,12.65,47.84626,-54.09684
2023-07-22 06:19:00+00:00,238.3631,20.1,12.65,47.84626,-54.09684
2023-07-22 06:29:00+00:00,230.7581,20.1,12.65,47.84626,-54.09684
2023-07-22 06:39:00+00:00,225.7814,20.1,12.65,47.84626,-54.09684
2023-07-22 06:49:00+00:00,216.6931,20.1,12.65,47.84626,-54.09684
2023-07-22 06:59:00+00:00,206.9631,20.1,12.65,47.84626,-54.09684
2023-07-22 07:09:00+00:00,203.2731,20.1,12.65,47.84626,-54.09684
2023-07-22 07:19:00+00:00,200.4948,20.1,12.65,47.84626,-54.09684
2023-07-22 07:29:00+00:00,195.6998,20.1,12.65,47.84626,-54.09684
2023-07-22 07:39:00+00:00,192.9148,20.16,12.65,47.84626,-54.09684
2023-07-22 07:49:00+00:00,194.4581,20.19,12.65,47.84626,-54.09684
2023-07-22 07:59:00+00:00,193.7814,20.2,12.65,47.84626,-54.09684
2023-07-22 08:09:00+00:00,191.1864,20.2,12.65,47.84626,-54.09684
2023-07-22 08:19:00+00:00,190.7431,20.2,12.65,47.84626,-54.09684
2023-07-22 08:29:00+00:00,192.0015,20.24,12.65,47.84626,-54.09684
2023-07-22 08:39:00+00:00,193.5781,20.28,12.65,47.84626,-54.09684
2023-07-22 08:49:00+00:00,194.2581,20.29,12.65,47.84626,-54.09684
2023-07-22 08:59:00+00:00,198.0431,20.3,12.65,47.84626,-54.09684
2023-07-22 09:09:00+00:00,203.9714,20.3,12.65,47.84626,-54.09684
2023-07-22 09:19:00+00:00,206.9081,20.3,12.65,47.84626,-54.09684
2023-07-22 09:29:00+00:00,207.8281,20.3,12.65,47.84626,-54.09684
2023-07-22 09:39:00+00:00,212.0348,20.34,12.65,47.84626,-54.09684
2023-07-22 09:49:00+00:00,216.5114,20.35,12.65,47.84626,-54.09684
2023-07-22 09:59:00+00:00,218.2848,20.31,12.65,47.84626,-54.09684
2023-07-22 10:09:00+00:00,220.8764,20.38,12.65,47.84626,-54.09684
2023-07-22 10:19:01+00:00,224.4214,20.4,12.65,47.84626,-54.09684
2023-07-22 10:29:01+00:00,227.8731,20.4,12.65,47.84626,-54.09684
2023-07-22 10:39:01+00:00,230.8098,20.4,12.65,47.84626,-54.09684
2023-07-22 10:49:01+00:00,233.0264,20.49,12.65,47.84626,-54.09684
2023-07-22 10:59:01+00:00,238.8297,20.5,12.65,47.84626,-54.09684
2023-07-22 11:09:01+00:00,245.0547,20.4,12.65,47.84626,-54.09684
2023-07-22 11:19:00+00:00,246.8181,20.39,12.89,47.84626,-54.09684
2023-07-22 11:29:00+00:00,249.4014,20.3,12.89,47.84626,-54.09684
2023-07-22 11:39:00+00:00,257.7131,20.2,12.89,47.84626,-54.09684
2023-07-22 11:49:00+00:00,262.5031,20.2,12.89,47.84626,-54.09684
2023-07-22 11:59:00+00:00,263.9814,20.2,12.89,47.84626,-54.09684
2023-07-22 12:09:00+00:00,268.8714,19.97,12.89,47.84626,-54.09684
2023-07-22 12:19:00+00:00,275.8914,19.7,13.29,47.84626,-54.09684
2023-07-22 12:29:00+00:00,278.70799999999997,19.84,13.29,47.84626,-54.09684
2023-07-22 12:39:00+00:00,281.6714,19.6,13.29,47.84626,-54.09684
2023-07-22 12:49:00+00:00,289.7231,19.37,13.29,47.84626,-54.09684
2023-07-22 12:59:00+00:00,297.3097,19.28,13.29,47.84626,-54.09684
2023-07-22 13:09:00+00:00,300.1364,19.3,13.29,47.84626,-54.09684
2023-07-22 13:19:00+00:00,302.383,19.1,13.44,47.84626,-54.09684
2023-07-22 13:29:00+00:00,306.373,18.76,13.44,47.84626,-54.09684
2023-07-22 13:39:00+00:00,308.9664,19.0,13.44,47.84626,-54.09684
2023-07-22 13:49:00+00:00,309.7647,19.0,13.44,47.84626,-54.09684
2023-07-22 13:59:00+00:00,313.0897,18.67,13.44,47.84626,-54.09684
2023-07-22 14:09:00+00:00,318.3613,18.65,13.44,47.84626,-54.09684
2023-07-22 14:19:00+00:00,319.1013,18.9,13.53,47.84626,-54.09684
2023-07-22 14:29:00+00:00,315.368,19.09,13.53,47.84626,-54.09684
2023-07-22 14:39:00+00:00,313.483,19.0,13.53,47.84626,-54.09684
2023-07-22 14:49:00+00:00,314.2963,19.55,13.53,47.84626,-54.09684
2023-07-22 14:59:00+00:00,314.2448,19.81,13.53,47.84626,-54.09684
2023-07-22 15:09:00+00:00,315.5746,19.7,13.53,47.84626,-54.09684
2023-07-22 15:19:00+00:00,315.3663,19.5,13.92,47.84626,-54.09684
2023-07-22 15:29:00+00:00,313.6947,19.7,13.92,47.84626,-54.09684
2023-07-22 15:39:00+00:00,313.0563,19.88,13.92,47.84626,-54.09684
2023-07-22 15:49:00+00:00,313.4147,19.93,13.92,47.84626,-54.09684
2023-07-22 15:59:00+00:00,311.8363,20.01,13.92,47.84626,-54.09684
2023-07-22 16:09:00+00:00,310.0847,20.11,13.92,47.84626,-54.09684
2023-07-22 16:19:00+00:00,308.4897,20.2,13.76,47.84626,-54.09684
2023-07-22 16:29:00+00:00,306.8863,20.25,13.76,47.84626,-54.09684
2023-07-22 16:39:00+00:00,301.3146,20.32,13.76,47.84626,-54.09684
2023-07-22 16:49:00+00:00,294.9514,20.4,13.76,47.84626,-54.09684
2023-07-22 16:59:00+00:00,290.7863,20.41,13.76,47.84626,-54.09684
2023-07-22 17:09:00+00:00,286.703,20.47,13.76,47.84626,-54.09684
2023-07-22 17:19:00+00:00,280.0547,20.49,13.6,47.84626,-54.09684
2023-07-22 17:29:00+00:00,269.843,20.5,13.6,47.84626,-54.09684
2023-07-22 17:39:00+00:00,261.4547,20.53,13.6,47.84626,-54.09684
2023-07-22 17:49:00+00:00,253.6748,20.5,13.6,47.84626,-54.09684
2023-07-22 17:59:00+00:00,247.3414,20.5,13.6,47.84626,-54.09684
2023-07-22 18:09:00+00:00,240.7198,20.5,13.6,47.84626,-54.09684
2023-07-22 18:19:00+00:00,235.3031,20.5,13.53,47.84626,-54.09684
2023-07-22 18:29:00+00:00,229.5164,20.5,13.53,47.84626,-54.09684
2023-07-22 18:39:00+00:00,221.7514,20.5,13.53,47.84626,-54.09684
2023-07-22 18:49:00+00:00,216.2781,20.5,13.53,47.84626,-54.09684
2023-07-22 18:59:00+00:00,212.8448,20.49,13.53,47.84626,-54.09684
2023-07-22 19:09:00+00:00,205.1298,20.48,13.53,47.84626,-54.09684
2023-07-22 19:19:00+00:00,196.2048,20.44,13.44,47.84626,-54.09684
2023-07-22 19:29:00+00:00,193.6148,20.4,13.44,47.84626,-54.09684
2023-07-22 19:39:00+00:00,192.8197,20.4,13.44,47.84626,-54.09684
2023-07-22 19:49:00+00:00,189.7048,20.4,13.44,47.84626,-54.09684
2023-07-22 19:59:00+00:00,189.3047,20.4,13.44,47.84626,-54.09684
2023-07-22 20:09:00+00:00,192.4698,20.3,13.44,47.84626,-54.09684
2023-07-22 20:19:00+00:00,193.0831,20.2,13.37,47.84626,-54.09684
2023-07-22 20:29:00+00:00,193.9448,20.1,13.37,47.84626,-54.09684
2023-07-22 20:39:00+00:00,195.0764,20.0,13.37,47.84626,-54.09684
2023-07-22 20:49:00+00:00,195.9515,19.9,13.37,47.84626,-54.09684
2023-07-22 20:59:00+00:00,198.5165,19.8,13.37,47.84626,-54.09684
2023-07-22 21:09:00+00:00,199.5348,19.8,13.37,47.84626,-54.09684
2023-07-22 21:19:00+00:00,200.0831,19.79,13.21,47.84626,-54.09684
2023-07-22 21:29:00+00:00,203.0531,19.6,13.21,47.84626,-54.09684
2023-07-22 21:39:00+00:00,208.3365,19.6,13.21,47.84626,-54.09684
2023-07-22 21:49:00+00:00,213.1215,19.5,13.21,47.84626,-54.09684
2023-07-22 21:59:00+00:00,217.3965,19.5,13.21,47.84626,-54.09684
2023-07-22 22:09:00+00:00,223.4498,19.62,13.21,47.84626,-54.09684
2023-07-22 22:19:00+00:00,228.6681,19.6,13.05,47.84626,-54.09684
2023-07-22 22:29:00+00:00,230.9698,19.58,13.05,47.84626,-54.09684
2023-07-22 22:39:00+00:00,234.9231,19.59,13.05,47.84626,-54.09684
2023-07-22 22:49:00+00:00,239.4514,19.67,13.05,47.84626,-54.09684
2023-07-22 22:59:00+00:00,240.8031,19.7,13.05,47.84626,-54.09684
2023-07-22 23:09:00+00:00,240.7647,19.8,13.05,47.84626,-54.09684
2023-07-22 23:19:00+00:00,242.3614,19.93,12.81,47.84626,-54.09684
2023-07-22 23:29:00+00:00,246.4197,19.8,12.81,47.84626,-54.09684
2023-07-22 23:39:00+00:00,249.1898,19.8,12.81,47.84626,-54.09684
2023-07-22 23:49:00+00:00,251.6048,19.9,12.81,47.84626,-54.09684
2023-07-22 23:59:00+00:00,257.1047,19.9,12.81,47.84626,-54.09684
